Year,Month,Day,Hour,Minute,Value (Times are PST for insolation in W/m^2)
2016,11,11,00,00,0.00
2016,11,11,00,01,0.00
2016,11,11,00,02,0.00
2016,11,11,00,03,0.00
2016,11,11,00,04,0.00
2016,11,11,00,05,0.00
2016,11,11,00,06,0.00
2016,11,11,00,07,0.00
2016,11,11,00,08,0.00
2016,11,11,00,09,0.00
2016,11,11,00,10,0.00
2016,11,11,00,11,0.00
2016,11,11,00,12,0.00
2016,11,11,00,13,0.00
2016,11,11,00,14,0.00
2016,11,11,00,15,0.00
2016,11,11,00,16,0.00
2016,11,11,00,17,0.00
2016,11,11,00,18,0.00
2016,11,11,00,19,0.00
2016,11,11,00,20,0.00
2016,11,11,00,21,0.00
2016,11,11,00,22,0.00
2016,11,11,00,23,0.00
2016,11,11,00,24,0.00
2016,11,11,00,25,0.00
2016,11,11,00,26,0.00
2016,11,11,00,27,0.00
2016,11,11,00,28,0.00
2016,11,11,00,29,0.00
2016,11,11,00,30,0.00
2016,11,11,00,31,0.00
2016,11,11,00,32,0.00
2016,11,11,00,33,0.00
2016,11,11,00,34,0.00
2016,11,11,00,35,0.00
2016,11,11,00,36,0.00
2016,11,11,00,37,0.00
2016,11,11,00,38,0.00
2016,11,11,00,39,0.00
2016,11,11,00,40,0.00
2016,11,11,00,41,0.00
2016,11,11,00,42,0.00
2016,11,11,00,43,0.00
2016,11,11,00,44,0.00
2016,11,11,00,45,0.00
2016,11,11,00,46,0.00
2016,11,11,00,47,0.00
2016,11,11,00,48,0.00
2016,11,11,00,49,0.00
2016,11,11,00,50,0.00
2016,11,11,00,51,0.00
2016,11,11,00,52,0.00
2016,11,11,00,53,0.00
2016,11,11,00,54,0.00
2016,11,11,00,55,0.00
2016,11,11,00,56,0.00
2016,11,11,00,57,0.00
2016,11,11,00,58,0.00
2016,11,11,00,59,0.00
2016,11,11,01,00,0.00
2016,11,11,01,01,0.00
2016,11,11,01,02,0.00
2016,11,11,01,03,0.00
2016,11,11,01,04,0.00
2016,11,11,01,05,0.00
2016,11,11,01,06,0.00
2016,11,11,01,07,0.00
2016,11,11,01,08,0.00
2016,11,11,01,09,0.00
2016,11,11,01,10,0.00
2016,11,11,01,11,0.00
2016,11,11,01,12,0.00
2016,11,11,01,13,0.00
2016,11,11,01,14,0.00
2016,11,11,01,15,0.00
2016,11,11,01,16,0.00
2016,11,11,01,17,0.00
2016,11,11,01,18,0.00
2016,11,11,01,19,0.00
2016,11,11,01,20,0.00
2016,11,11,01,21,0.00
2016,11,11,01,22,0.00
2016,11,11,01,23,0.00
2016,11,11,01,24,0.00
2016,11,11,01,25,0.00
2016,11,11,01,26,0.00
2016,11,11,01,27,0.00
2016,11,11,01,28,0.00
2016,11,11,01,29,0.00
2016,11,11,01,30,0.00
2016,11,11,01,31,0.00
2016,11,11,01,32,0.00
2016,11,11,01,33,0.00
2016,11,11,01,34,0.00
2016,11,11,01,35,0.00
2016,11,11,01,36,0.00
2016,11,11,01,37,0.00
2016,11,11,01,38,0.00
2016,11,11,01,39,0.00
2016,11,11,01,40,0.00
2016,11,11,01,41,0.00
2016,11,11,01,42,0.00
2016,11,11,01,43,0.00
2016,11,11,01,44,0.00
2016,11,11,01,45,0.00
2016,11,11,01,46,0.00
2016,11,11,01,47,0.00
2016,11,11,01,48,0.00
2016,11,11,01,49,0.00
2016,11,11,01,50,0.00
2016,11,11,01,51,0.00
2016,11,11,01,52,0.00
2016,11,11,01,53,0.00
2016,11,11,01,54,0.00
2016,11,11,01,55,0.00
2016,11,11,01,56,0.00
2016,11,11,01,57,0.00
2016,11,11,01,58,0.00
2016,11,11,01,59,0.00
2016,11,11,02,00,0.00
2016,11,11,02,01,0.00
2016,11,11,02,02,0.00
2016,11,11,02,03,0.00
2016,11,11,02,04,0.00
2016,11,11,02,05,0.00
2016,11,11,02,06,0.00
2016,11,11,02,07,0.00
2016,11,11,02,08,0.00
2016,11,11,02,09,0.00
2016,11,11,02,10,0.00
2016,11,11,02,11,0.00
2016,11,11,02,12,0.00
2016,11,11,02,13,0.00
2016,11,11,02,14,0.00
2016,11,11,02,15,0.00
2016,11,11,02,16,0.00
2016,11,11,02,17,0.00
2016,11,11,02,18,0.00
2016,11,11,02,19,0.00
2016,11,11,02,20,0.00
2016,11,11,02,21,0.00
2016,11,11,02,22,0.00
2016,11,11,02,23,0.00
2016,11,11,02,24,0.00
2016,11,11,02,25,0.00
2016,11,11,02,26,0.00
2016,11,11,02,27,0.00
2016,11,11,02,28,0.00
2016,11,11,02,29,0.00
2016,11,11,02,30,0.00
2016,11,11,02,31,0.00
2016,11,11,02,32,0.00
2016,11,11,02,33,0.00
2016,11,11,02,34,0.00
2016,11,11,02,35,0.00
2016,11,11,02,36,0.00
2016,11,11,02,37,0.00
2016,11,11,02,38,0.00
2016,11,11,02,39,0.00
2016,11,11,02,40,0.00
2016,11,11,02,41,0.00
2016,11,11,02,42,0.00
2016,11,11,02,43,0.00
2016,11,11,02,44,0.00
2016,11,11,02,45,0.00
2016,11,11,02,46,0.00
2016,11,11,02,47,0.00
2016,11,11,02,48,0.00
2016,11,11,02,49,0.00
2016,11,11,02,50,0.00
2016,11,11,02,51,0.00
2016,11,11,02,52,0.00
2016,11,11,02,53,0.00
2016,11,11,02,54,0.00
2016,11,11,02,55,0.00
2016,11,11,02,56,0.00
2016,11,11,02,57,0.00
2016,11,11,02,58,0.00
2016,11,11,02,59,0.00
2016,11,11,03,00,0.00
2016,11,11,03,01,0.00
2016,11,11,03,02,0.00
2016,11,11,03,03,0.00
2016,11,11,03,04,0.00
2016,11,11,03,05,0.00
2016,11,11,03,06,0.00
2016,11,11,03,07,0.00
2016,11,11,03,08,0.00
2016,11,11,03,09,0.00
2016,11,11,03,10,0.00
2016,11,11,03,11,0.00
2016,11,11,03,12,0.00
2016,11,11,03,13,0.00
2016,11,11,03,14,0.00
2016,11,11,03,15,0.00
2016,11,11,03,16,0.00
2016,11,11,03,17,0.00
2016,11,11,03,18,0.00
2016,11,11,03,19,0.00
2016,11,11,03,20,0.00
2016,11,11,03,21,0.00
2016,11,11,03,22,0.00
2016,11,11,03,23,0.00
2016,11,11,03,24,0.00
2016,11,11,03,25,0.00
2016,11,11,03,26,0.00
2016,11,11,03,27,0.00
2016,11,11,03,28,0.00
2016,11,11,03,29,0.00
2016,11,11,03,30,0.00
2016,11,11,03,31,0.00
2016,11,11,03,32,0.00
2016,11,11,03,33,0.00
2016,11,11,03,34,0.00
2016,11,11,03,35,0.00
2016,11,11,03,36,0.00
2016,11,11,03,37,0.00
2016,11,11,03,38,0.00
2016,11,11,03,39,0.00
2016,11,11,03,40,0.00
2016,11,11,03,41,0.00
2016,11,11,03,42,0.00
2016,11,11,03,43,0.00
2016,11,11,03,44,0.00
2016,11,11,03,45,0.00
2016,11,11,03,46,0.00
2016,11,11,03,47,0.00
2016,11,11,03,48,0.00
2016,11,11,03,49,0.00
2016,11,11,03,50,0.00
2016,11,11,03,51,0.00
2016,11,11,03,52,0.00
2016,11,11,03,53,0.00
2016,11,11,03,54,0.00
2016,11,11,03,55,0.00
2016,11,11,03,56,0.00
2016,11,11,03,57,0.00
2016,11,11,03,58,0.00
2016,11,11,03,59,0.00
2016,11,11,04,00,0.00
2016,11,11,04,01,0.00
2016,11,11,04,02,0.00
2016,11,11,04,03,0.00
2016,11,11,04,04,0.00
2016,11,11,04,05,0.00
2016,11,11,04,06,0.00
2016,11,11,04,07,0.00
2016,11,11,04,08,0.00
2016,11,11,04,09,0.00
2016,11,11,04,10,0.00
2016,11,11,04,11,0.00
2016,11,11,04,12,0.00
2016,11,11,04,13,0.00
2016,11,11,04,14,0.00
2016,11,11,04,15,0.00
2016,11,11,04,16,0.00
2016,11,11,04,17,0.00
2016,11,11,04,18,0.00
2016,11,11,04,19,0.00
2016,11,11,04,20,0.00
2016,11,11,04,21,0.00
2016,11,11,04,22,0.00
2016,11,11,04,23,0.00
2016,11,11,04,24,0.00
2016,11,11,04,25,0.00
2016,11,11,04,26,0.00
2016,11,11,04,27,0.00
2016,11,11,04,28,0.00
2016,11,11,04,29,0.00
2016,11,11,04,30,0.00
2016,11,11,04,31,0.00
2016,11,11,04,32,0.00
2016,11,11,04,33,0.00
2016,11,11,04,34,0.00
2016,11,11,04,35,0.00
2016,11,11,04,36,0.00
2016,11,11,04,37,0.00
2016,11,11,04,38,0.00
2016,11,11,04,39,0.00
2016,11,11,04,40,0.00
2016,11,11,04,41,0.00
2016,11,11,04,42,0.00
2016,11,11,04,43,0.00
2016,11,11,04,44,0.00
2016,11,11,04,45,0.00
2016,11,11,04,46,0.00
2016,11,11,04,47,0.00
2016,11,11,04,48,0.00
2016,11,11,04,49,0.00
2016,11,11,04,50,0.00
2016,11,11,04,51,0.00
2016,11,11,04,52,0.00
2016,11,11,04,53,0.00
2016,11,11,04,54,0.00
2016,11,11,04,55,0.00
2016,11,11,04,56,0.00
2016,11,11,04,57,0.00
2016,11,11,04,58,0.00
2016,11,11,04,59,0.00
2016,11,11,05,00,0.00
2016,11,11,05,01,0.00
2016,11,11,05,02,0.00
2016,11,11,05,03,0.00
2016,11,11,05,04,0.00
2016,11,11,05,05,0.00
2016,11,11,05,06,0.00
2016,11,11,05,07,0.00
2016,11,11,05,08,0.00
2016,11,11,05,09,0.00
2016,11,11,05,10,0.00
2016,11,11,05,11,0.00
2016,11,11,05,12,0.00
2016,11,11,05,13,0.00
2016,11,11,05,14,0.00
2016,11,11,05,15,0.00
2016,11,11,05,16,0.00
2016,11,11,05,17,0.00
2016,11,11,05,18,0.00
2016,11,11,05,19,0.00
2016,11,11,05,20,0.00
2016,11,11,05,21,0.00
2016,11,11,05,22,0.00
2016,11,11,05,23,0.00
2016,11,11,05,24,0.00
2016,11,11,05,25,0.00
2016,11,11,05,26,0.00
2016,11,11,05,27,0.00
2016,11,11,05,28,0.00
2016,11,11,05,29,0.00
2016,11,11,05,30,0.00
2016,11,11,05,31,0.00
2016,11,11,05,32,0.00
2016,11,11,05,33,0.00
2016,11,11,05,34,0.00
2016,11,11,05,35,0.00
2016,11,11,05,36,0.00
2016,11,11,05,37,0.00
2016,11,11,05,38,0.00
2016,11,11,05,39,0.00
2016,11,11,05,40,0.00
2016,11,11,05,41,0.00
2016,11,11,05,42,0.00
2016,11,11,05,43,0.00
2016,11,11,05,44,0.00
2016,11,11,05,45,0.00
2016,11,11,05,46,0.00
2016,11,11,05,47,0.00
2016,11,11,05,48,0.00
2016,11,11,05,49,0.00
2016,11,11,05,50,0.00
2016,11,11,05,51,0.00
2016,11,11,05,52,0.00
2016,11,11,05,53,0.00
2016,11,11,05,54,0.00
2016,11,11,05,55,0.00
2016,11,11,05,56,0.00
2016,11,11,05,57,0.00
2016,11,11,05,58,0.00
2016,11,11,05,59,0.00
2016,11,11,06,00,0.00
2016,11,11,06,01,0.00
2016,11,11,06,02,0.00
2016,11,11,06,03,0.00
2016,11,11,06,04,0.00
2016,11,11,06,05,0.00
2016,11,11,06,06,0.00
2016,11,11,06,07,0.00
2016,11,11,06,08,0.00
2016,11,11,06,09,0.00
2016,11,11,06,10,0.00
2016,11,11,06,11,0.00
2016,11,11,06,12,0.00
2016,11,11,06,13,0.00
2016,11,11,06,14,0.00
2016,11,11,06,15,0.00
2016,11,11,06,16,0.00
2016,11,11,06,17,0.00
2016,11,11,06,18,0.00
2016,11,11,06,19,0.00
2016,11,11,06,20,0.00
2016,11,11,06,21,0.00
2016,11,11,06,22,0.00
2016,11,11,06,23,0.00
2016,11,11,06,24,0.00
2016,11,11,06,25,0.00
2016,11,11,06,26,0.00
2016,11,11,06,27,0.00
2016,11,11,06,28,0.00
2016,11,11,06,29,0.00
2016,11,11,06,30,0.00
2016,11,11,06,31,0.00
2016,11,11,06,32,0.00
2016,11,11,06,33,0.00
2016,11,11,06,34,0.00
2016,11,11,06,35,0.00
2016,11,11,06,36,0.00
2016,11,11,06,37,0.00
2016,11,11,06,38,0.00
2016,11,11,06,39,0.00
2016,11,11,06,40,0.00
2016,11,11,06,41,0.00
2016,11,11,06,42,0.00
2016,11,11,06,43,0.00
2016,11,11,06,44,0.00
2016,11,11,06,45,0.00
2016,11,11,06,46,0.00
2016,11,11,06,47,0.00
2016,11,11,06,48,0.00
2016,11,11,06,49,0.00
2016,11,11,06,50,0.00
2016,11,11,06,51,0.00
2016,11,11,06,52,0.00
2016,11,11,06,53,0.00
2016,11,11,06,54,0.00
2016,11,11,06,55,0.00
2016,11,11,06,56,0.00
2016,11,11,06,57,0.00
2016,11,11,06,58,0.00
2016,11,11,06,59,0.00
2016,11,11,07,00,0.00
2016,11,11,07,01,0.00
2016,11,11,07,02,0.00
2016,11,11,07,03,0.00
2016,11,11,07,04,0.00
2016,11,11,07,05,0.00
2016,11,11,07,06,0.00
2016,11,11,07,07,0.00
2016,11,11,07,08,0.00
2016,11,11,07,09,0.00
2016,11,11,07,10,0.00
2016,11,11,07,11,0.00
2016,11,11,07,12,0.00
2016,11,11,07,13,0.00
2016,11,11,07,14,0.00
2016,11,11,07,15,0.00
2016,11,11,07,16,0.00
2016,11,11,07,17,0.00
2016,11,11,07,18,0.00
2016,11,11,07,19,0.00
2016,11,11,07,20,0.00
2016,11,11,07,21,0.00
2016,11,11,07,22,0.00
2016,11,11,07,23,0.00
2016,11,11,07,24,0.00
2016,11,11,07,25,0.00
2016,11,11,07,26,0.00
2016,11,11,07,27,0.00
2016,11,11,07,28,0.00
2016,11,11,07,29,0.00
2016,11,11,07,30,0.00
2016,11,11,07,31,0.00
2016,11,11,07,32,0.00
2016,11,11,07,33,0.00
2016,11,11,07,34,0.00
2016,11,11,07,35,0.00
2016,11,11,07,36,0.00
2016,11,11,07,37,0.00
2016,11,11,07,38,0.00
2016,11,11,07,39,0.00
2016,11,11,07,40,0.00
2016,11,11,07,41,0.00
2016,11,11,07,42,0.00
2016,11,11,07,43,0.00
2016,11,11,07,44,0.00
2016,11,11,07,45,0.00
2016,11,11,07,46,0.00
2016,11,11,07,47,0.00
2016,11,11,07,48,0.00
2016,11,11,07,49,0.00
2016,11,11,07,50,0.00
2016,11,11,07,51,0.00
2016,11,11,07,52,0.00
2016,11,11,07,53,2.40
2016,11,11,07,54,5.00
2016,11,11,07,55,5.00
2016,11,11,07,56,5.00
2016,11,11,07,57,0.20
2016,11,11,07,58,1.00
2016,11,11,07,59,5.00
2016,11,11,08,00,5.00
2016,11,11,08,01,5.00
2016,11,11,08,02,5.00
2016,11,11,08,03,6.70
2016,11,11,08,04,7.00
2016,11,11,08,05,7.00
2016,11,11,08,06,7.00
2016,11,11,08,07,7.00
2016,11,11,08,08,7.00
2016,11,11,08,09,5.60
2016,11,11,08,10,5.00
2016,11,11,08,11,0.30
2016,11,11,08,12,0.00
2016,11,11,08,13,0.00
2016,11,11,08,14,0.00
2016,11,11,08,15,0.00
2016,11,11,08,16,0.00
2016,11,11,08,17,4.20
2016,11,11,08,18,5.00
2016,11,11,08,19,5.50
2016,11,11,08,20,7.00
2016,11,11,08,21,7.90
2016,11,11,08,22,10.10
2016,11,11,08,23,11.70
2016,11,11,08,24,12.00
2016,11,11,08,25,13.90
2016,11,11,08,26,14.40
2016,11,11,08,27,16.70
2016,11,11,08,28,18.00
2016,11,11,08,29,18.50
2016,11,11,08,30,19.00
2016,11,11,08,31,18.10
2016,11,11,08,32,18.00
2016,11,11,08,33,17.60
2016,11,11,08,34,16.00
2016,11,11,08,35,16.00
2016,11,11,08,36,14.90
2016,11,11,08,37,14.00
2016,11,11,08,38,14.00
2016,11,11,08,39,14.20
2016,11,11,08,40,16.00
2016,11,11,08,41,16.60
2016,11,11,08,42,18.00
2016,11,11,08,43,18.60
2016,11,11,08,44,19.00
2016,11,11,08,45,19.00
2016,11,11,08,46,20.90
2016,11,11,08,47,21.40
2016,11,11,08,48,23.00
2016,11,11,08,49,23.90
2016,11,11,08,50,25.00
2016,11,11,08,51,25.70
2016,11,11,08,52,26.00
2016,11,11,08,53,26.20
2016,11,11,08,54,28.00
2016,11,11,08,55,28.60
2016,11,11,08,56,30.90
2016,11,11,08,57,33.70
2016,11,11,08,58,37.60
2016,11,11,08,59,39.80
2016,11,11,09,00,43.80
2016,11,11,09,01,44.60
2016,11,11,09,02,48.30
2016,11,11,09,03,52.30
2016,11,11,09,04,55.10
2016,11,11,09,05,57.40
2016,11,11,09,06,58.00
2016,11,11,09,07,57.80
2016,11,11,09,08,55.60
2016,11,11,09,09,54.00
2016,11,11,09,10,54.00
2016,11,11,09,11,54.00
2016,11,11,09,12,54.00
2016,11,11,09,13,54.00
2016,11,11,09,14,53.10
2016,11,11,09,15,53.00
2016,11,11,09,16,53.00
2016,11,11,09,17,53.00
2016,11,11,09,18,53.00
2016,11,11,09,19,53.00
2016,11,11,09,20,53.00
2016,11,11,09,21,53.90
2016,11,11,09,22,54.00
2016,11,11,09,23,53.70
2016,11,11,09,24,53.50
2016,11,11,09,25,55.10
2016,11,11,09,26,56.00
2016,11,11,09,27,56.00
2016,11,11,09,28,56.10
2016,11,11,09,29,57.50
2016,11,11,09,30,55.10
2016,11,11,09,31,50.40
2016,11,11,09,32,44.00
2016,11,11,09,33,40.50
2016,11,11,09,34,40.00
2016,11,11,09,35,42.30
2016,11,11,09,36,46.60
2016,11,11,09,37,50.40
2016,11,11,09,38,53.00
2016,11,11,09,39,54.70
2016,11,11,09,40,56.00
2016,11,11,09,41,56.00
2016,11,11,09,42,53.00
2016,11,11,09,43,50.20
2016,11,11,09,44,46.00
2016,11,11,09,45,43.10
2016,11,11,09,46,40.90
2016,11,11,09,47,39.30
2016,11,11,09,48,39.00
2016,11,11,09,49,36.80
2016,11,11,09,50,32.40
2016,11,11,09,51,29.30
2016,11,11,09,52,27.10
2016,11,11,09,53,26.00
2016,11,11,09,54,26.00
2016,11,11,09,55,26.00
2016,11,11,09,56,26.20
2016,11,11,09,57,28.00
2016,11,11,09,58,28.60
2016,11,11,09,59,30.00
2016,11,11,10,00,30.00
2016,11,11,10,01,31.40
2016,11,11,10,02,34.40
2016,11,11,10,03,37.10
2016,11,11,10,04,39.00
2016,11,11,10,05,38.40
2016,11,11,10,06,37.00
2016,11,11,10,07,35.90
2016,11,11,10,08,33.60
2016,11,11,10,09,33.00
2016,11,11,10,10,35.10
2016,11,11,10,11,37.60
2016,11,11,10,12,40.60
2016,11,11,10,13,42.90
2016,11,11,10,14,45.70
2016,11,11,10,15,49.80
2016,11,11,10,16,53.50
2016,11,11,10,17,56.00
2016,11,11,10,18,56.50
2016,11,11,10,19,58.00
2016,11,11,10,20,58.00
2016,11,11,10,21,55.80
2016,11,11,10,22,53.30
2016,11,11,10,23,53.00
2016,11,11,10,24,53.00
2016,11,11,10,25,53.00
2016,11,11,10,26,52.40
2016,11,11,10,27,51.90
2016,11,11,10,28,54.70
2016,11,11,10,29,60.20
2016,11,11,10,30,62.80
2016,11,11,10,31,63.00
2016,11,11,10,32,63.00
2016,11,11,10,33,62.70
2016,11,11,10,34,61.10
2016,11,11,10,35,58.90
2016,11,11,10,36,56.60
2016,11,11,10,37,56.00
2016,11,11,10,38,54.00
2016,11,11,10,39,53.80
2016,11,11,10,40,53.00
2016,11,11,10,41,53.50
2016,11,11,10,42,54.00
2016,11,11,10,43,55.40
2016,11,11,10,44,57.60
2016,11,11,10,45,58.20
2016,11,11,10,46,60.50
2016,11,11,10,47,62.30
2016,11,11,10,48,63.90
2016,11,11,10,49,66.20
2016,11,11,10,50,68.40
2016,11,11,10,51,69.80
2016,11,11,10,52,69.10
2016,11,11,10,53,68.60
2016,11,11,10,54,65.80
2016,11,11,10,55,60.80
2016,11,11,10,56,58.00
2016,11,11,10,57,55.20
2016,11,11,10,58,53.20
2016,11,11,10,59,50.90
2016,11,11,11,00,48.60
2016,11,11,11,01,47.00
2016,11,11,11,02,47.00
2016,11,11,11,03,47.00
2016,11,11,11,04,47.00
2016,11,11,11,05,47.00
2016,11,11,11,06,47.50
2016,11,11,11,07,53.80
2016,11,11,11,08,56.60
2016,11,11,11,09,59.80
2016,11,11,11,10,62.60
2016,11,11,11,11,63.00
2016,11,11,11,12,68.90
2016,11,11,11,13,76.30
2016,11,11,11,14,79.80
2016,11,11,11,15,83.90
2016,11,11,11,16,87.80
2016,11,11,11,17,90.60
2016,11,11,11,18,91.00
2016,11,11,11,19,90.20
2016,11,11,11,20,89.80
2016,11,11,11,21,87.50
2016,11,11,11,22,85.10
2016,11,11,11,23,80.30
2016,11,11,11,24,74.00
2016,11,11,11,25,70.50
2016,11,11,11,26,69.20
2016,11,11,11,27,69.90
2016,11,11,11,28,70.50
2016,11,11,11,29,71.30
2016,11,11,11,30,67.60
2016,11,11,11,31,63.30
2016,11,11,11,32,60.60
2016,11,11,11,33,60.00
2016,11,11,11,34,60.00
2016,11,11,11,35,60.40
2016,11,11,11,36,62.00
2016,11,11,11,37,62.50
2016,11,11,11,38,65.20
2016,11,11,11,39,68.30
2016,11,11,11,40,69.80
2016,11,11,11,41,72.10
2016,11,11,11,42,74.60
2016,11,11,11,43,78.90
2016,11,11,11,44,84.30
2016,11,11,11,45,88.40
2016,11,11,11,46,90.00
2016,11,11,11,47,88.30
2016,11,11,11,48,85.90
2016,11,11,11,49,83.00
2016,11,11,11,50,82.30
2016,11,11,11,51,80.10
2016,11,11,11,52,77.30
2016,11,11,11,53,73.20
2016,11,11,11,54,69.60
2016,11,11,11,55,66.90
2016,11,11,11,56,65.40
2016,11,11,11,57,67.60
2016,11,11,11,58,69.40
2016,11,11,11,59,70.00
2016,11,11,12,00,66.30
2016,11,11,12,01,61.00
2016,11,11,12,02,54.30
2016,11,11,12,03,54.00
2016,11,11,12,04,54.70
2016,11,11,12,05,56.90
2016,11,11,12,06,59.10
2016,11,11,12,07,60.00
2016,11,11,12,08,61.60
2016,11,11,12,09,62.00
2016,11,11,12,10,62.00
2016,11,11,12,11,62.90
2016,11,11,12,12,65.90
2016,11,11,12,13,68.10
2016,11,11,12,14,66.20
2016,11,11,12,15,59.00
2016,11,11,12,16,65.80
2016,11,11,12,17,76.00
2016,11,11,12,18,75.40
2016,11,11,12,19,74.00
2016,11,11,12,20,75.10
2016,11,11,12,21,76.70
2016,11,11,12,22,77.00
2016,11,11,12,23,76.90
2016,11,11,12,24,75.60
2016,11,11,12,25,74.00
2016,11,11,12,26,74.90
2016,11,11,12,27,76.00
2016,11,11,12,28,74.60
2016,11,11,12,29,72.30
2016,11,11,12,30,70.30
2016,11,11,12,31,72.40
2016,11,11,12,32,74.60
2016,11,11,12,33,76.40
2016,11,11,12,34,77.00
2016,11,11,12,35,76.30
2016,11,11,12,36,74.30
2016,11,11,12,37,69.90
2016,11,11,12,38,66.00
2016,11,11,12,39,62.10
2016,11,11,12,40,59.10
2016,11,11,12,41,59.10
2016,11,11,12,42,61.40
2016,11,11,12,43,64.40
2016,11,11,12,44,69.10
2016,11,11,12,45,75.00
2016,11,11,12,46,80.20
2016,11,11,12,47,82.10
2016,11,11,12,48,78.10
2016,11,11,12,49,69.60
2016,11,11,12,50,59.40
2016,11,11,12,51,51.20
2016,11,11,12,52,46.40
2016,11,11,12,53,44.00
2016,11,11,12,54,44.00
2016,11,11,12,55,45.70
2016,11,11,12,56,48.40
2016,11,11,12,57,52.20
2016,11,11,12,58,54.00
2016,11,11,12,59,54.00
2016,11,11,13,00,54.00
2016,11,11,13,01,54.00
2016,11,11,13,02,54.00
2016,11,11,13,03,54.00
2016,11,11,13,04,54.00
2016,11,11,13,05,53.90
2016,11,11,13,06,52.60
2016,11,11,13,07,49.70
2016,11,11,13,08,46.50
2016,11,11,13,09,44.90
2016,11,11,13,10,45.50
2016,11,11,13,11,46.80
2016,11,11,13,12,51.10
2016,11,11,13,13,53.20
2016,11,11,13,14,53.00
2016,11,11,13,15,47.70
2016,11,11,13,16,41.20
2016,11,11,13,17,37.60
2016,11,11,13,18,38.70
2016,11,11,13,19,42.20
2016,11,11,13,20,46.20
2016,11,11,13,21,46.70
2016,11,11,13,22,44.30
2016,11,11,13,23,40.30
2016,11,11,13,24,37.60
2016,11,11,13,25,37.00
2016,11,11,13,26,38.90
2016,11,11,13,27,39.20
2016,11,11,13,28,41.30
2016,11,11,13,29,45.30
2016,11,11,13,30,48.10
2016,11,11,13,31,47.60
2016,11,11,13,32,47.00
2016,11,11,13,33,46.00
2016,11,11,13,34,46.20
2016,11,11,13,35,47.60
2016,11,11,13,36,50.80
2016,11,11,13,37,54.80
2016,11,11,13,38,58.90
2016,11,11,13,39,58.40
2016,11,11,13,40,53.90
2016,11,11,13,41,50.60
2016,11,11,13,42,49.00
2016,11,11,13,43,49.00
2016,11,11,13,44,49.00
2016,11,11,13,45,47.60
2016,11,11,13,46,46.20
2016,11,11,13,47,42.00
2016,11,11,13,48,40.00
2016,11,11,13,49,40.00
2016,11,11,13,50,40.90
2016,11,11,13,51,44.30
2016,11,11,13,52,46.70
2016,11,11,13,53,48.60
2016,11,11,13,54,50.90
2016,11,11,13,55,51.60
2016,11,11,13,56,56.50
2016,11,11,13,57,65.30
2016,11,11,13,58,69.60
2016,11,11,13,59,67.90
2016,11,11,14,00,58.20
2016,11,11,14,01,47.10
2016,11,11,14,02,39.40
2016,11,11,14,03,37.00
2016,11,11,14,04,37.90
2016,11,11,14,05,39.60
2016,11,11,14,06,41.40
2016,11,11,14,07,42.00
2016,11,11,14,08,39.00
2016,11,11,14,09,34.40
2016,11,11,14,10,30.60
2016,11,11,14,11,28.00
2016,11,11,14,12,28.00
2016,11,11,14,13,29.40
2016,11,11,14,14,31.60
2016,11,11,14,15,33.20
2016,11,11,14,16,37.40
2016,11,11,14,17,39.30
2016,11,11,14,18,40.90
2016,11,11,14,19,44.20
2016,11,11,14,20,50.90
2016,11,11,14,21,57.00
2016,11,11,14,22,62.70
2016,11,11,14,23,60.30
2016,11,11,14,24,51.00
2016,11,11,14,25,40.00
2016,11,11,14,26,32.20
2016,11,11,14,27,30.00
2016,11,11,14,28,26.80
2016,11,11,14,29,26.20
2016,11,11,14,30,28.80
2016,11,11,14,31,32.30
2016,11,11,14,32,33.90
2016,11,11,14,33,36.10
2016,11,11,14,34,37.00
2016,11,11,14,35,35.40
2016,11,11,14,36,33.10
2016,11,11,14,37,33.00
2016,11,11,14,38,33.00
2016,11,11,14,39,33.00
2016,11,11,14,40,32.40
2016,11,11,14,41,30.50
2016,11,11,14,42,30.00
2016,11,11,14,43,28.10
2016,11,11,14,44,28.00
2016,11,11,14,45,28.00
2016,11,11,14,46,28.00
2016,11,11,14,47,28.00
2016,11,11,14,48,28.00
2016,11,11,14,49,28.00
2016,11,11,14,50,29.90
2016,11,11,14,51,30.50
2016,11,11,14,52,31.40
2016,11,11,14,53,29.10
2016,11,11,14,54,26.90
2016,11,11,14,55,26.00
2016,11,11,14,56,26.00
2016,11,11,14,57,25.10
2016,11,11,14,58,26.00
2016,11,11,14,59,26.00
2016,11,11,15,00,26.00
2016,11,11,15,01,26.00
2016,11,11,15,02,27.40
2016,11,11,15,03,26.30
2016,11,11,15,04,25.90
2016,11,11,15,05,25.00
2016,11,11,15,06,25.00
2016,11,11,15,07,24.10
2016,11,11,15,08,23.00
2016,11,11,15,09,23.00
2016,11,11,15,10,24.70
2016,11,11,15,11,25.10
2016,11,11,15,12,26.00
2016,11,11,15,13,26.00
2016,11,11,15,14,26.00
2016,11,11,15,15,26.00
2016,11,11,15,16,26.00
2016,11,11,15,17,25.10
2016,11,11,15,18,24.90
2016,11,11,15,19,23.00
2016,11,11,15,20,22.40
2016,11,11,15,21,21.00
2016,11,11,15,22,21.00
2016,11,11,15,23,21.00
2016,11,11,15,24,21.00
2016,11,11,15,25,21.00
2016,11,11,15,26,21.00
2016,11,11,15,27,21.00
2016,11,11,15,28,21.00
2016,11,11,15,29,21.00
2016,11,11,15,30,21.00
2016,11,11,15,31,21.00
2016,11,11,15,32,20.80
2016,11,11,15,33,19.00
2016,11,11,15,34,18.70
2016,11,11,15,35,18.00
2016,11,11,15,36,18.00
2016,11,11,15,37,16.70
2016,11,11,15,38,16.00
2016,11,11,15,39,16.00
2016,11,11,15,40,15.60
2016,11,11,15,41,14.00
2016,11,11,15,42,13.10
2016,11,11,15,43,12.00
2016,11,11,15,44,12.00
2016,11,11,15,45,12.00
2016,11,11,15,46,12.10
2016,11,11,15,47,14.00
2016,11,11,15,48,14.00
2016,11,11,15,49,14.00
2016,11,11,15,50,14.00
2016,11,11,15,51,14.00
2016,11,11,15,52,14.00
2016,11,11,15,53,12.20
2016,11,11,15,54,12.00
2016,11,11,15,55,12.00
2016,11,11,15,56,11.50
2016,11,11,15,57,11.00
2016,11,11,15,58,11.00
2016,11,11,15,59,11.00
2016,11,11,16,00,11.00
2016,11,11,16,01,10.60
2016,11,11,16,02,9.00
2016,11,11,16,03,9.00
2016,11,11,16,04,9.00
2016,11,11,16,05,10.40
2016,11,11,16,06,11.00
2016,11,11,16,07,11.00
2016,11,11,16,08,11.00
2016,11,11,16,09,11.00
2016,11,11,16,10,11.00
2016,11,11,16,11,11.00
2016,11,11,16,12,11.00
2016,11,11,16,13,11.00
2016,11,11,16,14,11.00
2016,11,11,16,15,11.00
2016,11,11,16,16,10.40
2016,11,11,16,17,9.00
2016,11,11,16,18,9.00
2016,11,11,16,19,9.00
2016,11,11,16,20,9.00
2016,11,11,16,21,9.00
2016,11,11,16,22,9.00
2016,11,11,16,23,9.00
2016,11,11,16,24,7.40
2016,11,11,16,25,5.00
2016,11,11,16,26,5.00
2016,11,11,16,27,1.00
2016,11,11,16,28,0.00
2016,11,11,16,29,0.00
2016,11,11,16,30,0.00
2016,11,11,16,31,0.00
2016,11,11,16,32,0.00
2016,11,11,16,33,0.00
2016,11,11,16,34,0.00
2016,11,11,16,35,0.00
2016,11,11,16,36,0.00
2016,11,11,16,37,0.00
2016,11,11,16,38,0.00
2016,11,11,16,39,0.00
2016,11,11,16,40,0.00
2016,11,11,16,41,0.00
2016,11,11,16,42,0.00
2016,11,11,16,43,0.00
2016,11,11,16,44,0.00
2016,11,11,16,45,0.00
2016,11,11,16,46,0.00
2016,11,11,16,47,0.00
2016,11,11,16,48,0.00
2016,11,11,16,49,0.00
2016,11,11,16,50,0.00
2016,11,11,16,51,0.00
2016,11,11,16,52,0.00
2016,11,11,16,53,0.00
2016,11,11,16,54,0.00
2016,11,11,16,55,0.00
2016,11,11,16,56,0.00
2016,11,11,16,57,0.00
2016,11,11,16,58,0.00
2016,11,11,16,59,0.00
2016,11,11,17,00,0.00
2016,11,11,17,01,0.00
2016,11,11,17,02,0.00
2016,11,11,17,03,0.00
2016,11,11,17,04,0.00
2016,11,11,17,05,0.00
2016,11,11,17,06,0.00
2016,11,11,17,07,0.00
2016,11,11,17,08,0.00
2016,11,11,17,09,0.00
2016,11,11,17,10,0.00
2016,11,11,17,11,0.00
2016,11,11,17,12,0.00
2016,11,11,17,13,0.00
2016,11,11,17,14,0.00
2016,11,11,17,15,0.00
2016,11,11,17,16,0.00
2016,11,11,17,17,0.00
2016,11,11,17,18,0.00
2016,11,11,17,19,0.00
2016,11,11,17,20,0.00
2016,11,11,17,21,0.00
2016,11,11,17,22,0.00
2016,11,11,17,23,0.00
2016,11,11,17,24,0.00
2016,11,11,17,25,0.00
2016,11,11,17,26,0.00
2016,11,11,17,27,0.00
2016,11,11,17,28,0.00
2016,11,11,17,29,0.00
2016,11,11,17,30,0.00
2016,11,11,17,31,0.00
2016,11,11,17,32,0.00
2016,11,11,17,33,0.00
2016,11,11,17,34,0.00
2016,11,11,17,35,0.00
2016,11,11,17,36,0.00
2016,11,11,17,37,0.00
2016,11,11,17,38,0.00
2016,11,11,17,39,0.00
2016,11,11,17,40,0.00
2016,11,11,17,41,0.00
2016,11,11,17,42,0.00
2016,11,11,17,43,0.00
2016,11,11,17,44,0.00
2016,11,11,17,45,0.00